TimeEDT,TemperatureF,Dew PointF,Humidity,Sea Level PressureIn,VisibilityMPH,Wind Direction,Wind SpeedMPH,Gust SpeedMPH,PrecipitationIn,Events,Conditions,WindDirDegrees,DateUTC
12:53 AM,78.1,75.0,90,29.97,10.0,East,4.6,-,N/A,,Scattered Clouds,90,2013-08-08 04:53:00
1:53 AM,78.1,75.0,90,29.96,10.0,East,5.8,-,N/A,,Partly Cloudy,90,2013-08-08 05:53:00
2:53 AM,78.1,75.0,90,29.96,10.0,Calm,Calm,-,N/A,,Scattered Clouds,0,2013-08-08 06:53:00
3:53 AM,78.1,75.0,90,29.95,10.0,ESE,4.6,-,N/A,,Partly Cloudy,110,2013-08-08 07:53:00
4:53 AM,78.1,75.0,90,29.95,10.0,ESE,5.8,-,N/A,,Partly Cloudy,110,2013-08-08 08:53:00
5:53 AM,79.0,75.0,88,29.95,10.0,ESE,4.6,-,N/A,,Partly Cloudy,120,2013-08-08 09:53:00
6:53 AM,78.1,75.0,90,29.96,10.0,ESE,4.6,-,N/A,,Scattered Clouds,110,2013-08-08 10:53:00
7:53 AM,79.0,75.0,88,29.96,10.0,ESE,4.6,-,N/A,,Scattered Clouds,110,2013-08-08 11:53:00
8:53 AM,82.0,75.9,82,29.98,10.0,Variable,6.9,-,N/A,,Scattered Clouds,0,2013-08-08 12:53:00
9:53 AM,84.0,75.9,76,29.99,10.0,SE,8.1,-,N/A,,Scattered Clouds,140,2013-08-08 13:53:00
10:53 AM,86.0,73.9,67,30.01,10.0,SE,9.2,-,N/A,,Scattered Clouds,130,2013-08-08 14:53:00
11:53 AM,88.0,73.9,63,30.01,10.0,South,8.1,-,N/A,,Scattered Clouds,170,2013-08-08 15:53:00
12:53 PM,89.1,73.0,59,30.00,10.0,East,8.1,-,N/A,,Scattered Clouds,100,2013-08-08 16:53:00
1:53 PM,91.0,71.1,52,29.99,10.0,South,9.2,-,N/A,,Scattered Clouds,170,2013-08-08 17:53:00
2:53 PM,91.0,71.1,52,29.98,10.0,SSE,3.5,-,N/A,,Mostly Cloudy,160,2013-08-08 18:53:00
3:53 PM,90.0,73.9,59,29.96,10.0,SW,6.9,-,N/A,,Mostly Cloudy,230,2013-08-08 19:53:00
4:53 PM,86.0,72.0,63,29.95,10.0,North,6.9,-,0.00,,Mostly Cloudy,10,2013-08-08 20:53:00
5:53 PM,89.1,72.0,57,29.96,10.0,NNE,5.8,-,N/A,,Mostly Cloudy,30,2013-08-08 21:53:00
6:53 PM,87.1,72.0,61,29.97,10.0,Calm,Calm,-,N/A,,Mostly Cloudy,0,2013-08-08 22:53:00
7:53 PM,79.0,73.0,82,30.00,10.0,WSW,6.9,-,N/A,,Mostly Cloudy,240,2013-08-08 23:53:00
8:35 PM,80.6,73.4,79,30.01,5.0,SE,11.5,18.4,0.00,Rain-Thunderstorm,Thunderstorms and Rain,130,2013-08-09 00:35:00
8:39 PM,78.8,73.4,83,30.01,1.5,South,8.1,18.4,0.08,Rain-Thunderstorm,Thunderstorms and Rain,170,2013-08-09 00:39:00
8:50 PM,78.8,69.8,74,30.00,3.0,NE,8.1,-,0.31,Rain-Thunderstorm,Thunderstorms and Rain,50,2013-08-09 00:50:00
8:53 PM,77.0,70.0,79,29.99,2.0,NE,4.6,-,0.31,Rain-Thunderstorm,Thunderstorms and Rain,40,2013-08-09 00:53:00
8:59 PM,77.0,71.6,83,29.99,10.0,Calm,Calm,-,0.00,Rain-Thunderstorm,Thunderstorms and Rain,0,2013-08-09 00:59:00
9:14 PM,77.0,73.4,89,30.00,10.0,Calm,Calm,-,0.00,,Mostly Cloudy,0,2013-08-09 01:14:00
9:53 PM,78.1,73.9,87,30.04,10.0,NE,6.9,-,0.00,,Mostly Cloudy,50,2013-08-09 01:53:00
10:53 PM,78.1,73.9,87,30.04,10.0,Variable,3.5,-,N/A,,Scattered Clouds,0,2013-08-09 02:53:00
11:53 PM,78.1,73.0,84,30.04,10.0,Calm,Calm,-,N/A,,Partly Cloudy,0,2013-08-09 03:53:00